Regional Weather Roundup
Issued by NWS

Home | Current Version | Previous Version | Graphics & Text | Print | Product List | Glossary On
Versions: 1 2 3 4 5 6 7 8 9 10 11 12 13 14 15 16 17 18 19 20 21 22 23 24 25 26 27 28 29 30 31 32 33 34 35 36 37 38 39 40 41 42 43 44 45 46 47 48 49 50
000
ASUS43 KLMK 230310
RWRKY
KENTUCKY REGIONAL WEATHER ROUNDUP
NATIONAL WEATHER SERVICE LOUISVILLE KY
1000 PM EST THU FEB 22 2018

NOTE "FAIR" INDICATES FEW OR NO CLOUDS BELOW 12,000 FEET
WITH NO SIGNIFICANT WEATHER AND/OR OBSTRUCTIONS TO VISIBILITY.

KYZ001>023-026-027-061>063-070>075-230400-
WESTERN AND SOUTH CENTRAL KENTUCKY

CITY           SKY/WX    TMP DP  RH WIND       PRES   REMARKS
PADUCAH        CLOUDY    50  47  89 NE6       30.30F
HENDERSON      MOCLDY    50  49  96 SE3       30.33R
OWENSBORO      CLOUDY    50  49  96 E7        30.33S FOG
HOPKINSVILLE   CLOUDY    57  57 100 SE8       30.30F
BOWLING GREEN  CLOUDY    58  58 100 E3        30.33F
GLASGOW        CLOUDY   N/A N/A N/A CALM      30.34S FOG
$$

KYZ024-025-028>034-038-045-046-053-230400-
NORTH CENTRAL KENTUCKY

CITY           SKY/WX    TMP DP  RH WIND       PRES   REMARKS
LOUISVILLE/SDF FOG       50  48  93 N3        30.35S VSB 1
LOUISVILLE/LOU CLOUDY    49  49 100 NE5       30.36S FOG
FORT KNOX      FOG       48  48 100 E6        30.34F VSB 5/8
$$

KYZ035>037-039>044-047>052-055>060-089>105-230400-
NORTHEAST KENTUCKY

CITY           SKY/WX    TMP DP  RH WIND       PRES   REMARKS
LEXINGTON      FOG       51  49  92 CALM      30.36R VSB 3/4
COVINGTON      CLOUDY    45  45 100 E7        30.37F FOG
FRANKFORT      CLOUDY    49  46  90 NE3       30.35R FOG
$$

KYZ054-064>069-076>088-106>120-230400-
SOUTHEAST KENTUCKY

CITY           SKY/WX    TMP DP  RH WIND       PRES   REMARKS
JACKSON        MOCLDY    53  52  96 VRB5      30.36S
LONDON         FAIR      60  58  92 SE3       30.36R
SOMERSET       FAIR      55  55 100 CALM      30.38R FOG
MIDDLESBORO    FAIR      59  59 100 CALM      30.36S
MONTICELLO     NOT AVBL
$$





USA.gov is the U.S. government's official web portal to all federal, state and local government web resources and services.